{"data":{"norad_id":59006,"epoch":"2026-09-20T23:27:45.830592Z","epoch_age_seconds":114203,"freshness":"FRESH","line1":"1 59006U 24036J   26263.97761378 -.00003514  00000+0 -92905-4 0  9995","line2":"2 59006  53.1582 249.5473 0002475  92.2903 267.8383 15.34393751145247","mean_motion":15.34393751,"eccentricity":0.0002475,"inclination_deg":53.1582,"raan_deg":249.5473,"arg_perigee_deg":92.2903,"mean_anomaly_deg":267.8383,"bstar":-9.2905e-5,"rev_number":14524,"period_min":93.848140287427,"perigee_km":461.02870105869,"apogee_km":464.41492617143,"semimajor_km":6840.8588136151,"source":"CELESTRAK","updated_at":"2026-09-21T09:00:34.024474Z"}}